EW5058 Weather Reports


Display with metric or nautical units.
time (UTC)temp
F
wind
direction
speed
MPH
gust
MPH
rain 1hr
in
rain 24hr
in
rain mn
in
humidity
%
barometer
mb
20260503031819 54 338 6.0 9.0 0.00 0.00 0.00 60 1012.3
20260503030818 54 338 6.0 10.0 0.00 0.00 0.00 60 1012.4
20260503025818 54 338 5.0 6.0 0.00 0.00 0.00 59 1012.5
20260503024818 54 338 7.0 9.0 0.00 0.00 0.00 59 1012.4
20260503023818 54 338 6.0 9.0 0.00 0.00 0.00 59 1012.4
20260503022818 54 338 8.0 12.0 0.00 0.00 0.00 58 1012.3
20260503021838 55 338 4.0 6.0 0.00 0.00 0.00 58 1012.4
20260503020818 55 338 7.0 9.0 0.00 0.00 0.00 58 1012.4
20260503015818 55 338 6.0 10.0 0.00 0.00 0.00 59 1012.3
20260503014818 55 338 9.0 11.0 0.00 0.00 0.00 58 1012.4
20260503013819 55 338 5.0 8.0 0.00 0.00 0.00 59 1012.5
20260503012818 55 315 6.0 9.0 0.00 0.00 0.00 59 1012.3
20260503011838 55 338 5.0 8.0 0.00 0.00 0.00 60 1012.4
20260503010818 55 338 3.0 4.0 0.00 0.00 0.00 59 1012.3
20260503005818 55 338 5.0 8.0 0.00 0.00 0.00 58 1012.1
20260503004818 55 338 4.0 6.0 0.00 0.00 0.00 57 1012.0
20260503003819 55 338 3.0 5.0 0.00 0.00 0.00 56 1011.8
20260503002818 56 338 4.0 4.0 0.00 0.00 0.00 56 1011.6
20260503001820 56 338 4.0 5.0 0.00 0.00 0.00 54 1011.6
20260503000839 56 338 5.0 6.0 0.00 0.00 0.00 55 1011.4
20260502235818 56 338 4.0 5.0 0.00 0.00 0.00 54 1011.3
20260502234818 57 338 5.0 8.0 0.00 0.00 0.00 52 1011.3
20260502233820 57 338 5.0 8.0 0.00 0.00 0.00 51 1011.2
20260502232838 57 338 5.0 6.0 0.00 0.00 0.00 51 1011.2
20260502231818 58 338 7.0 11.0 0.00 0.00 0.00 49 1011.2
20260502230820 58 338 8.0 11.0 0.00 0.00 0.00 49 1011.1
20260502225818 59 338 7.0 9.0 0.00 0.00 0.00 48 1011.1
20260502224818 59 338 4.0 5.0 0.00 0.00 0.00 48 1011.1
20260502223818 60 315 4.0 4.0 0.00 0.00 0.00 49 1011.2
20260502222818 60 0 3.0 4.0 0.00 0.00 0.00 49 1011.3
20260502221818 60 338 7.0 10.0 0.00 0.00 0.00 49 1011.2
20260502220820 60 338 7.0 10.0 0.00 0.00 0.00 49 1011.3
20260502215820 60 315 7.0 10.0 0.00 0.00 0.00 50 1011.3
20260502214820 59 338 3.0 7.0 0.00 0.00 0.00 50 1011.3
20260502213819 59 338 7.0 10.0 0.00 0.00 0.00 51 1011.2
20260502212820 59 338 7.0 9.0 0.00 0.00 0.00 50 1011.3
20260502211818 59 0 6.0 9.0 0.00 0.00 0.00 49 1011.3
20260502210820 59 338 8.0 12.0 0.00 0.00 0.00 48 1011.3
20260502205820 59 338 6.0 9.0 0.00 0.00 0.00 46 1011.0
20260502204820 60 338 7.0 9.0 0.00 0.00 0.00 47 1011.1
20260502203820 60 315 9.0 12.0 0.00 0.00 0.00 44 1011.0
20260502202820 61 338 6.0 10.0 0.00 0.00 0.00 47 1011.1
20260502201820 61 338 9.0 11.0 0.00 0.00 0.00 46 1011.1
20260502200820 61 338 6.0 10.0 0.00 0.00 0.00 48 1011.0
20260502195820 62 315 7.0 11.0 0.00 0.00 0.00 46 1011.2
20260502194840 62 315 10.0 13.0 0.00 0.00 0.00 52 1011.4
20260502193840 61 338 9.0 11.0 0.00 0.00 0.00 50 1011.4
20260502192820 61 338 6.0 9.0 0.00 0.00 0.00 50 1011.7
20260502191819 62 315 9.0 13.0 0.00 0.00 0.00 50 1011.8
20260502190819 61 315 10.0 15.0 0.00 0.00 0.00 51 1012.0
20260502185839 61 315 9.0 12.0 0.00 0.00 0.00 50 1012.2
20260502184820 62 293 6.0 9.0 0.00 0.00 0.00 49 1012.4
20260502183819 62 315 9.0 14.0 0.00 0.00 0.00 48 1012.4
20260502182820 63 293 7.0 10.0 0.00 0.00 0.00 48 1012.6
20260502181819 62 315 7.0 9.0 0.00 0.00 0.00 50 1012.8
20260502180819 61 315 10.0 14.0 0.00 0.00 0.00 55 1012.8
20260502163819 58 338 10.0 13.0 0.00 0.00 0.00 57 1013.4
20260502162819 58 338 5.0 6.0 0.00 0.00 0.00 55 1013.5
20260502161820 58 315 6.0 8.0 0.00 0.00 0.00 58 1013.6
20260502160819 58 338 8.0 12.0 0.00 0.00 0.00 59 1013.7
20260502151819 58 315 6.0 9.0 0.00 0.00 0.00 67 1014.1
20260502150818 57 315 8.0 11.0 0.00 0.00 0.00 66 1013.9
20260502122859 54 338 8.0 11.0 0.00 0.00 0.00 72 1013.5
20260502121819 54 338 9.0 14.0 0.00 0.00 0.00 71 1013.4
20260502120819 53 338 7.0 10.0 0.00 0.00 0.00 73 1013.4
20260502115919 53 315 9.0 11.0 0.00 0.00 0.00 72 1013.5
20260502114839 53 315 8.0 13.0 0.00 0.00 0.00 72 1013.6
20260502113819 53 315 5.0 8.0 0.00 0.00 0.00 72 1013.7
20260502112838 53 315 8.0 12.0 0.00 0.00 0.00 72 1013.5
20260502111858 53 315 7.0 11.0 0.00 0.00 0.00 74 1013.3
20260502110839 53 315 6.0 8.0 0.00 0.00 0.00 75 1013.2
20260502105819 53 315 4.0 6.0 0.00 0.00 0.00 75 1013.2
20260502104839 53 315 5.0 8.0 0.00 0.00 0.00 74 1013.0
20260502103819 53 315 8.0 10.0 0.00 0.00 0.00 74 1013.0
20260502102819 53 315 5.0 9.0 0.00 0.00 0.00 74 1012.9
20260502101859 53 315 8.0 13.0 0.00 0.00 0.00 74 1012.7
20260502100818 53 338 8.0 11.0 0.00 0.00 0.00 75 1012.7
20260502090838 53 338 3.0 4.0 0.00 0.00 0.00 85 1012.5
20260502070818 51 0.0 0.0 0.00 0.00 0.00 88 1011.6
20260502065840 51 0.0 0.0 0.00 0.00 0.00 87 1011.6
20260502064820 51 0.0 0.0 0.00 0.00 0.00 87 1011.7
20260502063818 52 0.0 0.0 0.00 0.00 0.00 87 1011.8
20260502062820 52 0.0 0.0 0.00 0.00 0.00 86 1011.9
20260502061818 52 0.0 0.0 0.00 0.00 0.00 86 1012.0
20260502060840 52 0.0 0.0 0.00 0.00 0.00 85 1012.3
20260502055820 53 0.0 0.0 0.00 0.00 0.00 84 1012.5
20260502054820 53 0.0 0.0 0.00 0.00 0.00 84 1012.6
20260502053818 53 0.0 0.0 0.00 0.00 0.00 83 1012.7
20260502052820 53 0.0 2.0 0.00 0.00 0.00 83 1012.5
20260502051820 54 0.0 1.0 0.00 0.00 0.00 82 1012.5
20260502050838 54 0.0 0.0 0.00 0.00 0.00 82 1012.4
20260502045819 54 0.0 0.0 0.00 0.00 0.00 82 1012.3
20260502044820 54 180 1.0 1.0 0.00 0.00 0.00 81 1012.3
20260502043820 54 158 2.0 5.0 0.00 0.00 0.00 81 1012.3
20260502042820 54 180 1.0 2.0 0.00 0.00 0.00 81 1012.4
20260502041820 54 180 1.0 3.0 0.00 0.00 0.00 81 1012.4
20260502040820 54 203 1.0 3.0 0.00 0.00 0.00 81 1012.5
20260502035819 54 180 1.0 2.0 0.00 0.00 0.00 81 1012.5
20260502034818 54 0.0 1.0 0.00 0.00 0.00 81 1012.5
20260502033819 54 180 1.0 4.0 0.00 0.00 0.00 81 1012.4
20260502032818 54 180 2.0 3.0 0.00 0.00 0.00 81 1012.4